Weather History for KADM - May, 2014

Change the Weather History Date:

Friday, May 2, 2014

  Actual Average Record
Temperature  
Mean Temperature 58 °F -  
Max Temperature 77 °F 76 °F 89 °F (1998)
Min Temperature 39 °F 57 °F 39 °F (2011)
Degree Days  
Heating Degree Days 7    
Growing Degree Days 8 (Base 50)    
Moisture  
Dew Point 40 °F    
Average Humidity 72    
Maximum Humidity 98    
Minimum Humidity 22    
Precipitation  
Precipitation 0.00 in - - ()
Sea Level Pressure  
Sea Level Pressure 30.00 in    
Wind  
Wind Speed 2 mph (NW)    
Max Wind Speed 14 mph    
Max Gust Speed 22 mph    
Visibility 10 miles    
Events      
Averages and records for this station are not official NWS values.
T = Trace of Precipitation, MM = Missing Value Source: NWS Daily Summary

Daily Weather History Graph

Daily Weather History Graph

Search for Another Location

Airport or City:

Trip Planner

Search our weather history database for the weather conditions in past years. The results will help you decide how hot, cold, wet, or windy it might be!

Date:

Astronomy

May. 02, 2014 Rise Set
Actual Time 6:37 AM CDT 8:13 PM CDT
Civil Twilight 6:10 AM CDT 8:40 PM CDT
Nautical Twilight 5:38 AM CDT 9:12 PM CDT
Astronomical Twilight 5:04 AM CDT 9:46 PM CDT
Moon 9:18 AM CDT (5/2) 11:34 PM CDT (5/2)
Length of Visible Light 14h 29m
Length of Day
13h 35m
Waxing Crescent, 12% of the Moon is Illuminated
May 2
Waxing Crescent
May 6
First Quarter
May 14
Full
May 21
Last Quarter
May 28
New

Hourly Weather History & Observations

Time (CDT) Temp. Windchill Dew Point Humidity Pressure Visibility Wind Dir Wind Speed Gust Speed Precip Events Conditions
12:15 AM 45.7 °F - 42.3 °F 88% 30.05 in 10.0 mi Calm Calm - N/A   Clear
12:35 AM 45.9 °F - 43.2 °F 90% 30.04 in 10.0 mi Calm Calm - N/A   Clear
12:55 AM 44.8 °F - 42.6 °F 92% 30.04 in 10.0 mi Calm Calm - N/A   Clear
1:15 AM 44.2 °F - 41.0 °F 88% 30.04 in 10.0 mi Calm Calm - N/A   Clear
1:35 AM 43.0 °F - 41.2 °F 93% 30.03 in 10.0 mi Calm Calm - N/A   Clear
1:55 AM 42.6 °F - 40.8 °F 93% 30.03 in 10.0 mi Calm Calm - N/A   Clear
2:15 AM 42.3 °F - 40.6 °F 94% 30.02 in 10.0 mi Calm Calm - N/A   Clear
2:35 AM 42.4 °F - 41.2 °F 95% 30.01 in 10.0 mi Calm Calm - N/A   Clear
2:55 AM 42.1 °F 40.2 °F 40.3 °F 93% 30.01 in 10.0 mi North 3.5 mph - N/A   Clear
3:15 AM 43.2 °F 41.5 °F 40.5 °F 90% 30.01 in 10.0 mi NNW 3.5 mph - N/A   Clear
3:35 AM 42.4 °F 40.7 °F 39.4 °F 89% 30.00 in 10.0 mi North 3.5 mph - N/A   Clear
3:55 AM 40.8 °F - 40.1 °F 97% 30.00 in 10.0 mi Calm Calm - N/A   Clear
4:15 AM 40.8 °F 38.8 °F 39.7 °F 96% 30.01 in 10.0 mi NNW 3.5 mph - N/A   Clear
4:35 AM 40.6 °F 38.6 °F 39.2 °F 95% 30.00 in 10.0 mi North 3.5 mph - N/A   Clear
4:55 AM 41.5 °F 39.6 °F 39.0 °F 91% 30.01 in 10.0 mi NNE 3.5 mph - N/A   Clear
5:15 AM 40.6 °F - 38.3 °F 91% 30.01 in 10.0 mi Calm Calm - N/A   Clear
5:35 AM 41.4 °F - 39.4 °F 93% 30.01 in 10.0 mi Calm Calm - N/A   Clear
5:55 AM 39.6 °F - 38.3 °F 95% 30.01 in 10.0 mi Calm Calm - N/A   Clear
6:15 AM 40.1 °F - 39.6 °F 98% 30.02 in 10.0 mi Calm Calm - N/A   Clear
6:35 AM 39.9 °F - 39.2 °F 97% 30.02 in 10.0 mi Calm Calm - N/A   Clear
6:55 AM 41.0 °F - 39.2 °F 93% 30.02 in 10.0 mi Calm Calm - N/A   Clear
7:55 AM 46.4 °F - 42.8 °F 87% 30.03 in 10.0 mi Calm Calm - N/A   Clear
8:55 AM 53.6 °F - 46.4 °F 77% 30.03 in 10.0 mi Calm Calm - N/A   Clear
9:55 AM - - - N/A% 30.03 in 10.0 mi Calm Calm - N/A   Clear
10:55 AM 71.6 °F - 33.8 °F 25% 30.03 in 10.0 mi Calm Calm - N/A   Clear
11:55 AM 73.4 °F - 35.6 °F 25% 30.02 in 10.0 mi Calm Calm - N/A   Clear
12:55 PM 75.2 °F - 35.6 °F 24% 30.02 in 10.0 mi West 12.7 mph - N/A   Clear
1:55 PM 75.2 °F - 37.4 °F 25% 29.98 in 10.0 mi WNW 13.8 mph 18.4 mph N/A   Clear
2:55 PM 77.0 °F - 35.6 °F 22% 29.96 in 10.0 mi West 11.5 mph 17.3 mph N/A   Clear
3:55 PM 77.0 °F - 35.6 °F 22% 29.94 in 10.0 mi WNW 6.9 mph 16.1 mph N/A   Clear
4:55 PM 77.0 °F - 35.6 °F 22% 29.93 in 10.0 mi WNW 12.7 mph 21.9 mph N/A   Clear
5:55 PM 75.2 °F - 33.8 °F 22% 29.92 in 10.0 mi West 5.8 mph 11.5 mph N/A   Clear
6:55 PM 73.4 °F - 37.4 °F 27% 29.92 in 10.0 mi West 5.8 mph - N/A   Clear
7:55 PM 68.0 °F - 39.2 °F 35% 29.93 in 10.0 mi West 4.6 mph - N/A   Clear
8:55 PM 60.8 °F - 41.0 °F 48% 29.94 in 10.0 mi Calm Calm - N/A   Clear
9:55 PM 55.4 °F - 42.8 °F 63% 29.96 in 10.0 mi Calm Calm - N/A   Clear
10:15 PM 54.0 °F - 44.8 °F 71% 29.96 in 10.0 mi Calm Calm - N/A   Clear
10:35 PM 52.0 °F - 44.4 °F 75% 29.97 in 10.0 mi Calm Calm - N/A   Clear
10:55 PM 51.8 °F - 44.6 °F 76% 29.97 in 10.0 mi Calm Calm - N/A   Clear
11:15 PM 50.7 °F - 45.0 °F 81% 29.97 in 10.0 mi Calm Calm - N/A   Clear
11:35 PM 48.9 °F - 43.9 °F 83% 29.97 in 10.0 mi Calm Calm - N/A   Clear
11:55 PM 48.4 °F - 45.3 °F 89% 29.97 in 10.0 mi Calm Calm - N/A   Clear